• En España
  • Lista de países
  • Para 7 días
  • Temperatura del agua
  • Mapa Satelital
  • El tiempo en el mapa
  • Informadores
  • user-avatar
    Iniciar sesión

    Tiempo cada hora Durres

    Hoy, 22 Febrero, Jueves

    Tiempo Temperatura Precipitaciones Viento Presión Humedad
    00:00 +8°C° 0,6 mm 6 mps 751 mmHg 81%
    01:00 +8°C° 0 mm 7 mps 751 mmHg 81%
    02:00 +8°C° 0,3 mm 7 mps 751 mmHg 81%
    03:00 +7°C° 0,3 mm 6 mps 751 mmHg 82%
    04:00 +7°C° 0,3 mm 6 mps 752 mmHg 82%
    05:00 +7°C° 0,2 mm 5 mps 752 mmHg 81%
    06:00 +7°C° 0,2 mm 5 mps 752 mmHg 81%
    07:00 +7°C° 0,2 mm 5 mps 752 mmHg 80%
    08:00 +9°C° 0 mm 5 mps 753 mmHg 75%
    09:00 +11°C° 0 mm 4 mps 753 mmHg 70%
    10:00 +13°C° 0 mm 4 mps 753 mmHg 65%
    11:00 +14°C° 0 mm 4 mps 753 mmHg 62%
    12:00 +15°C° 0 mm 5 mps 753 mmHg 60%
    13:00 +15°C° 0 mm 5 mps 753 mmHg 57%
    14:00 +15°C° 0,1 mm 5 mps 753 mmHg 59%
    15:00 +15°C° 0,1 mm 5 mps 753 mmHg 61%
    16:00 +14°C° 0,1 mm 5 mps 753 mmHg 64%
    17:00 +13°C° 0,1 mm 5 mps 753 mmHg 68%
    18:00 +11°C° 0,1 mm 6 mps 753 mmHg 73%
    19:00 +9°C° 0,1 mm 6 mps 754 mmHg 78%
    20:00 +9°C° 0,1 mm 5 mps 754 mmHg 77%
    21:00 +9°C° 0,1 mm 5 mps 754 mmHg 77%
    22:00 +8°C° 0,1 mm 5 mps 755 mmHg 76%
    23:00 +8°C° 0 mm 5 mps 755 mmHg 76%

    Mañana, 23 Febrero, Viernes

    Tiempo Temperatura Precipitaciones Viento Presión Humedad
    00:00 +8°C° 0 mm 5 mps 755 mmHg 76%
    01:00 +8°C° 0 mm 5 mps 755 mmHg 76%
    02:00 +8°C° 0 mm 5 mps 754 mmHg 76%
    03:00 +8°C° 0 mm 5 mps 754 mmHg 77%
    04:00 +7°C° 0 mm 5 mps 754 mmHg 77%
    05:00 +8°C° 0 mm 5 mps 754 mmHg 77%
    06:00 +8°C° 0 mm 4 mps 754 mmHg 77%
    07:00 +8°C° 0 mm 4 mps 754 mmHg 77%
    08:00 +10°C° 0 mm 4 mps 754 mmHg 73%
    09:00 +12°C° 0 mm 4 mps 754 mmHg 68%
    10:00 +14°C° 0 mm 4 mps 755 mmHg 63%
    11:00 +15°C° 0 mm 4 mps 754 mmHg 60%
    12:00 +16°C° 0 mm 3 mps 754 mmHg 57%
    13:00 +17°C° 0 mm 3 mps 754 mmHg 54%
    14:00 +17°C° 0 mm 3 mps 754 mmHg 56%
    15:00 +16°C° 0 mm 3 mps 754 mmHg 58%
    16:00 +16°C° 0 mm 3 mps 754 mmHg 61%
    17:00 +13°C° 0 mm 4 mps 754 mmHg 64%
    18:00 +12°C° 0 mm 5 mps 754 mmHg 68%
    19:00 +10°C° 0 mm 6 mps 754 mmHg 72%
    20:00 +9°C° 0 mm 6 mps 754 mmHg 72%
    21:00 +9°C° 0 mm 6 mps 754 mmHg 73%
    22:00 +9°C° 0 mm 6 mps 754 mmHg 73%
    23:00 +9°C° 0 mm 6 mps 754 mmHg 73%

    Pasado mañana, 24 Febrero, Sábado

    Tiempo Temperatura Precipitaciones Viento Presión Humedad
    00:00 +9°C° 0 mm 7 mps 753 mmHg 73%
    01:00 +8°C° 0 mm 7 mps 753 mmHg 73%
    02:00 +8°C° 0 mm 6 mps 753 mmHg 73%
    03:00 +8°C° 0 mm 6 mps 753 mmHg 74%
    04:00 +8°C° 0 mm 5 mps 753 mmHg 74%
    05:00 +8°C° 0 mm 5 mps 753 mmHg 74%
    06:00 +8°C° 0 mm 5 mps 753 mmHg 74%
    07:00 +8°C° 0 mm 5 mps 753 mmHg 74%
    08:00 +9°C° 0 mm 5 mps 753 mmHg 70%
    09:00 +12°C° 0 mm 4 mps 753 mmHg 66%
    10:00 +14°C° 0 mm 3 mps 754 mmHg 62%
    11:00 +14°C° 0 mm 3 mps 754 mmHg 59%
    12:00 +16°C° 0 mm 3 mps 754 mmHg 56%
    13:00 +16°C° 0 mm 3 mps 754 mmHg 53%
    14:00 +16°C° 0 mm 2 mps 754 mmHg 57%
    15:00 +15°C° 0 mm 2 mps 754 mmHg 61%
    16:00 +15°C° 0 mm 2 mps 754 mmHg 64%
    17:00 +14°C° 0,1 mm 2 mps 754 mmHg 69%
    18:00 +13°C° 0,1 mm 2 mps 754 mmHg 73%
    19:00 +12°C° 0,1 mm 2 mps 754 mmHg 77%
    20:00 +10°C° 0,2 mm 2 mps 755 mmHg 77%
    21:00 +10°C° 0,2 mm 2 mps 755 mmHg 76%
    22:00 +10°C° 0,2 mm 2 mps 755 mmHg 76%
    23:00 +10°C° 0,2 mm 2 mps 755 mmHg 76%

    25 Febrero, Domingo

    Tiempo Temperatura Precipitaciones Viento Presión Humedad
    00:00 +10°C° 0,2 mm 2 mps 755 mmHg 77%
    01:00 +9°C° 0,2 mm 2 mps 755 mmHg 77%
    02:00 +9°C° 0,4 mm 2 mps 755 mmHg 77%
    03:00 +9°C° 0,4 mm 3 mps 755 mmHg 78%
    04:00 +9°C° 0,4 mm 3 mps 755 mmHg 78%
    05:00 +9°C° 0,8 mm 3 mps 755 mmHg 78%
    06:00 +9°C° 0,8 mm 3 mps 755 mmHg 78%
    07:00 +7°C° 0,8 mm 4 mps 755 mmHg 78%
    08:00 +8°C° 0,7 mm 4 mps 755 mmHg 73%
    09:00 +9°C° 0,7 mm 5 mps 755 mmHg 69%
    10:00 +10°C° 0,7 mm 5 mps 755 mmHg 65%
    11:00 +12°C° 0,5 mm 5 mps 755 mmHg 65%
    12:00 +11°C° 0,5 mm 6 mps 754 mmHg 65%
    13:00 +11°C° 0,5 mm 6 mps 754 mmHg 66%
    14:00 +12°C° 0,3 mm 5 mps 754 mmHg 68%
    15:00 +10°C° 0,3 mm 5 mps 754 mmHg 71%
    16:00 +11°C° 0,3 mm 4 mps 753 mmHg 73%
    17:00 +10°C° 1,3 mm 4 mps 753 mmHg 78%
    18:00 +9°C° 1,3 mm 5 mps 753 mmHg 83%
    19:00 +8°C° 1,3 mm 5 mps 754 mmHg 87%
    20:00 +8°C° 2,8 mm 4 mps 753 mmHg 87%
    21:00 +7°C° 2,8 mm 4 mps 753 mmHg 87%
    22:00 +7°C° 2,8 mm 4 mps 753 mmHg 87%
    23:00 +7°C° 4,1 mm 4 mps 753 mmHg 87%

    26 Febrero, Lunes

    Tiempo Temperatura Precipitaciones Viento Presión Humedad
    00:00 +6°C° 4,1 mm 5 mps 752 mmHg 86%
    01:00 +5°C° 4,1 mm 6 mps 751 mmHg 86%
    02:00 +5°C° 2,1 mm 6 mps 751 mmHg 87%
    03:00 +5°C° 2,1 mm 6 mps 750 mmHg 87%
    04:00 +4°C° 2,1 mm 6 mps 750 mmHg 88%
    05:00 +5°C° 0,4 mm 5 mps 750 mmHg 87%
    06:00 +5°C° 0,4 mm 5 mps 750 mmHg 87%
    07:00 +5°C° 0,4 mm 4 mps 750 mmHg 86%
    08:00 +6°C° 0,2 mm 5 mps 750 mmHg 84%
    09:00 +6°C° 0,2 mm 5 mps 750 mmHg 82%
    10:00 +7°C° 0,2 mm 5 mps 751 mmHg 81%
    11:00 +7°C° 0 mm 4 mps 751 mmHg 78%
    12:00 +8°C° 0 mm 4 mps 751 mmHg 76%
    13:00 +10°C° 0 mm 3 mps 751 mmHg 74%
    14:00 +10°C° 0 mm 3 mps 751 mmHg 74%
    15:00 +10°C° 0 mm 2 mps 750 mmHg 74%
    16:00 +10°C° 0 mm 2 mps 750 mmHg 74%
    17:00 +9°C° 0 mm 2 mps 751 mmHg 76%
    18:00 +8°C° 0 mm 3 mps 751 mmHg 79%
    19:00 +7°C° 0 mm 3 mps 751 mmHg 81%
    20:00 +6°C° 0,3 mm 5 mps 751 mmHg 82%
    21:00 +5°C° 0,3 mm 6 mps 751 mmHg 83%
    22:00 +4°C° 0,3 mm 8 mps 751 mmHg 84%
    23:00 +5°C° 0,8 mm 8 mps 751 mmHg 85%

    27 Febrero, Martes

    Tiempo Temperatura Precipitaciones Viento Presión Humedad
    00:00 +5°C° 0,8 mm 8 mps 751 mmHg 86%
    01:00 +5°C° 0,8 mm 8 mps 751 mmHg 87%
    02:00 +5°C° 1,2 mm 8 mps 751 mmHg 88%
    03:00 +5°C° 1,2 mm 8 mps 750 mmHg 89%
    04:00 +5°C° 1,2 mm 7 mps 750 mmHg 90%
    05:00 +5°C° 0,7 mm 6 mps 750 mmHg 90%
    06:00 +6°C° 0,7 mm 5 mps 751 mmHg 91%
    07:00 +7°C° 0,7 mm 4 mps 751 mmHg 92%
    08:00 +7°C° 0,3 mm 4 mps 751 mmHg 89%
    09:00 +8°C° 0,3 mm 4 mps 751 mmHg 85%
    10:00 +10°C° 0,3 mm 4 mps 751 mmHg 82%
    11:00 +10°C° 0,4 mm 4 mps 751 mmHg 83%
    12:00 +10°C° 0,4 mm 4 mps 751 mmHg 84%
    13:00 +10°C° 0,4 mm 4 mps 752 mmHg 85%
    14:00 +10°C° 0,2 mm 4 mps 752 mmHg 84%
    15:00 +10°C° 0,2 mm 4 mps 752 mmHg 83%
    16:00 +10°C° 0,2 mm 4 mps 752 mmHg 82%
    17:00 +8°C° 0,1 mm 4 mps 752 mmHg 85%
    18:00 +8°C° 0,1 mm 4 mps 753 mmHg 87%
    19:00 +7°C° 0,1 mm 4 mps 753 mmHg 90%
    20:00 +7°C° 0 mm 5 mps 753 mmHg 90%
    21:00 +7°C° 0 mm 5 mps 754 mmHg 90%
    22:00 +7°C° 0 mm 5 mps 754 mmHg 90%
    23:00 +6°C° 0 mm 5 mps 754 mmHg 89%
    Mostrar más